sat.trackr.live / text

‹ back to catalog

STARLINK-1351

NORAD 45697 · 2020-035AS

PAYLOAD ACTIVE UNKNOWN

§ Identity

Operator
Country
US
Launch date
2020-06-04
Launch site
AFETR
Launch vehicle
Mass (kg)
RCS (m²)

Purposes: comms

External: N2YO · Heavens-Above · Gunter

§ Orbital elements

Epoch: 2026-09-20T01:30:45.764352Z

Period
91.25 min
Inclination
53.0354°
Eccentricity
0.0005374
Mean motion
15.78106809 rev/d
Perigee alt
332.2 km
Apogee alt
339.4 km
Semi-major
6,713.9 km
B*
3.4931e-4
RAAN
145.5518°
Arg perigee
116.4850°
Mean anomaly
243.6722°
Rev number
34,983

§ Raw data

STARLINK-13511 45697U 20035AS  26263.06302968  .00060606  00000+0  34931-3 0  99942 45697  53.0354 145.5518 0005374 116.4850 243.6722 15.78106809349834

JSON: /api/v1/satellites/45697 · /tle

For live sub-satellite position, see the globe view (requires WebGL).

§ Visibility from observer

Set your observer location to see the next 7 days of passes ≥ 10°. The values pass through the URL so the page stays shareable.

No JS? Fill the form by hand. The geolocation button needs JavaScript.